Hourly Weather Klaudyn

Today, 30 July, Friday

Time Temperature Precipitation Wind Pressure Humidity
00:00 +20°C° 0 mm 2 mps 749 mmHg 61%
01:00 +19°C° 0 mm 2 mps 749 mmHg 62%
02:00 +19°C° 0 mm 2 mps 749 mmHg 62%
03:00 +19°C° 0 mm 2 mps 749 mmHg 63%
04:00 +19°C° 0 mm 2 mps 749 mmHg 64%
05:00 +19°C° 0 mm 2 mps 749 mmHg 63%
06:00 +20°C° 0 mm 3 mps 749 mmHg 62%
07:00 +20°C° 0 mm 3 mps 749 mmHg 61%
08:00 +22°C° 0 mm 4 mps 749 mmHg 56%
09:00 +23°C° 0 mm 5 mps 749 mmHg 50%
10:00 +24°C° 0 mm 6 mps 749 mmHg 45%
11:00 +26°C° 0 mm 6 mps 749 mmHg 43%
12:00 +27°C° 0 mm 6 mps 748 mmHg 42%
13:00 +27°C° 0 mm 6 mps 748 mmHg 41%
14:00 +27°C° 0 mm 6 mps 748 mmHg 42%
15:00 +27°C° 0 mm 5 mps 748 mmHg 43%
16:00 +27°C° 0 mm 5 mps 747 mmHg 44%
17:00 +26°C° 0 mm 4 mps 747 mmHg 48%
18:00 +25°C° 0 mm 3 mps 747 mmHg 53%
19:00 +24°C° 0 mm 2 mps 747 mmHg 58%
20:00 +23°C° 0 mm 2 mps 747 mmHg 60%
21:00 +21°C° 0 mm 2 mps 747 mmHg 62%
22:00 +20°C° 0 mm 2 mps 747 mmHg 64%
23:00 +20°C° 0 mm 2 mps 747 mmHg 66%

Tomorrow, 31 July, Saturday

Time Temperature Precipitation Wind Pressure Humidity
00:00 +19°C° 0 mm 2 mps 747 mmHg 67%
01:00 +18°C° 0 mm 2 mps 747 mmHg 69%
02:00 +19°C° 0 mm 1 mps 747 mmHg 69%
03:00 +19°C° 0 mm 1 mps 747 mmHg 70%
04:00 +18°C° 0 mm 1 mps 747 mmHg 70%
05:00 +20°C° 0 mm 1 mps 747 mmHg 66%
06:00 +21°C° 0 mm 1 mps 747 mmHg 61%
07:00 +23°C° 0 mm 1 mps 747 mmHg 56%
08:00 +25°C° 0 mm 1 mps 747 mmHg 51%
09:00 +27°C° 0 mm 2 mps 747 mmHg 46%
10:00 +29°C° 0 mm 2 mps 747 mmHg 41%
11:00 +29°C° 0 mm 2 mps 746 mmHg 40%
12:00 +30°C° 0 mm 2 mps 746 mmHg 40%
13:00 +31°C° 0 mm 3 mps 746 mmHg 39%
14:00 +29°C° 0.1 mm 3 mps 746 mmHg 45%
15:00 +28°C° 0.1 mm 3 mps 746 mmHg 52%
16:00 +27°C° 0.1 mm 4 mps 746 mmHg 58%
17:00 +25°C° 0.5 mm 4 mps 746 mmHg 65%
18:00 +23°C° 0.5 mm 4 mps 746 mmHg 72%
19:00 +22°C° 0.5 mm 4 mps 746 mmHg 79%
20:00 +21°C° 0 mm 3 mps 746 mmHg 80%
21:00 +20°C° 0 mm 3 mps 746 mmHg 82%
22:00 +19°C° 0 mm 3 mps 746 mmHg 84%
23:00 +19°C° 0 mm 3 mps 747 mmHg 83%

Day after tomorrow, 1 August, Sunday

Time Temperature Precipitation Wind Pressure Humidity
00:00 +18°C° 0 mm 3 mps 747 mmHg 83%
01:00 +18°C° 0 mm 3 mps 747 mmHg 82%
02:00 +17°C° 0 mm 2 mps 747 mmHg 80%
03:00 +17°C° 0 mm 2 mps 747 mmHg 78%
04:00 +16°C° 0 mm 2 mps 747 mmHg 76%
05:00 +18°C° 0 mm 2 mps 748 mmHg 70%
06:00 +19°C° 0 mm 2 mps 748 mmHg 65%
07:00 +20°C° 0 mm 2 mps 748 mmHg 59%
08:00 +23°C° 0 mm 2 mps 748 mmHg 54%
09:00 +24°C° 0 mm 2 mps 748 mmHg 50%
10:00 +25°C° 0 mm 2 mps 747 mmHg 45%
11:00 +25°C° 0 mm 2 mps 747 mmHg 48%
12:00 +25°C° 0 mm 2 mps 747 mmHg 50%
13:00 +24°C° 0 mm 2 mps 748 mmHg 52%
14:00 +22°C° 0 mm 3 mps 747 mmHg 58%
15:00 +21°C° 0 mm 4 mps 747 mmHg 64%
16:00 +19°C° 0 mm 4 mps 747 mmHg 70%
17:00 +19°C° 0.1 mm 4 mps 747 mmHg 72%
18:00 +18°C° 0.1 mm 3 mps 747 mmHg 74%
19:00 +17°C° 0.1 mm 3 mps 747 mmHg 76%
20:00 +17°C° 0 mm 2 mps 747 mmHg 77%
21:00 +17°C° 0 mm 2 mps 747 mmHg 78%
22:00 +17°C° 0 mm 2 mps 747 mmHg 79%
23:00 +17°C° 0.2 mm 2 mps 747 mmHg 82%

2 August, Monday

Time Temperature Precipitation Wind Pressure Humidity
00:00 +16°C° 0.2 mm 2 mps 747 mmHg 86%
01:00 +16°C° 0.2 mm 2 mps 747 mmHg 89%
02:00 +16°C° 0.6 mm 3 mps 747 mmHg 91%
03:00 +16°C° 0.6 mm 3 mps 747 mmHg 94%
04:00 +16°C° 0.6 mm 3 mps 747 mmHg 96%
05:00 +16°C° 0.7 mm 3 mps 747 mmHg 95%
06:00 +16°C° 0.7 mm 3 mps 747 mmHg 94%
07:00 +16°C° 0.7 mm 2 mps 747 mmHg 93%
08:00 +18°C° 0.7 mm 3 mps 747 mmHg 84%
09:00 +20°C° 0.7 mm 4 mps 748 mmHg 74%
10:00 +22°C° 0.7 mm 4 mps 748 mmHg 65%
11:00 +23°C° 0.2 mm 5 mps 748 mmHg 59%
12:00 +25°C° 0.2 mm 5 mps 748 mmHg 53%
13:00 +26°C° 0.2 mm 6 mps 748 mmHg 47%
14:00 +24°C° 0 mm 6 mps 748 mmHg 49%
15:00 +24°C° 0 mm 6 mps 748 mmHg 51%
16:00 +23°C° 0 mm 6 mps 748 mmHg 54%
17:00 +22°C° 0.1 mm 5 mps 748 mmHg 61%
18:00 +20°C° 0.1 mm 4 mps 749 mmHg 68%
19:00 +19°C° 0.1 mm 4 mps 749 mmHg 75%
20:00 +18°C° 0 mm 3 mps 749 mmHg 78%
21:00 +17°C° 0 mm 3 mps 749 mmHg 80%
22:00 +17°C° 0 mm 2 mps 750 mmHg 82%
23:00 +16°C° 0 mm 3 mps 750 mmHg 83%

3 August, Tuesday

Time Temperature Precipitation Wind Pressure Humidity
00:00 +14°C° 0 mm 3 mps 750 mmHg 84%
01:00 +14°C° 0 mm 3 mps 750 mmHg 85%
02:00 +13°C° 0 mm 3 mps 750 mmHg 84%
03:00 +13°C° 0 mm 3 mps 751 mmHg 83%
04:00 +13°C° 0 mm 3 mps 751 mmHg 82%
05:00 +14°C° 0 mm 4 mps 751 mmHg 77%
06:00 +15°C° 0 mm 4 mps 751 mmHg 71%
07:00 +16°C° 0 mm 5 mps 752 mmHg 65%
08:00 +19°C° 0 mm 5 mps 752 mmHg 59%
09:00 +20°C° 0 mm 6 mps 752 mmHg 53%
10:00 +22°C° 0 mm 6 mps 752 mmHg 47%
11:00 +22°C° 0 mm 6 mps 752 mmHg 45%
12:00 +23°C° 0 mm 5 mps 752 mmHg 42%
13:00 +25°C° 0 mm 5 mps 752 mmHg 39%
14:00 +25°C° 0 mm 5 mps 752 mmHg 39%
15:00 +25°C° 0 mm 4 mps 752 mmHg 38%
16:00 +25°C° 0 mm 4 mps 752 mmHg 38%
17:00 +24°C° 0 mm 3 mps 752 mmHg 43%
18:00 +21°C° 0 mm 2 mps 752 mmHg 49%
19:00 +21°C° 0 mm 1 mps 752 mmHg 54%
20:00 +20°C° 0 mm 1 mps 752 mmHg 56%
21:00 +19°C° 0 mm 1 mps 752 mmHg 57%
22:00 +16°C° 0 mm 0 mps 752 mmHg 59%
23:00 +18°C° 0 mm 1 mps 753 mmHg 61%

4 August, Wednesday

Time Temperature Precipitation Wind Pressure Humidity
00:00 +16°C° 0 mm 1 mps 753 mmHg 62%
01:00 +16°C° 0 mm 2 mps 753 mmHg 64%
02:00 +16°C° 0 mm 2 mps 753 mmHg 65%
03:00 +15°C° 0 mm 2 mps 753 mmHg 66%
04:00 +15°C° 0 mm 2 mps 753 mmHg 67%
05:00 +17°C° 0 mm 2 mps 753 mmHg 62%
06:00 +18°C° 0 mm 2 mps 753 mmHg 58%
07:00 +20°C° 0 mm 2 mps 753 mmHg 54%
08:00 +21°C° 0 mm 2 mps 753 mmHg 49%
09:00 +24°C° 0 mm 2 mps 753 mmHg 44%
10:00 +26°C° 0 mm 3 mps 753 mmHg 39%
11:00 +26°C° 0 mm 2 mps 752 mmHg 38%
12:00 +27°C° 0 mm 2 mps 752 mmHg 37%
13:00 +27°C° 0 mm 2 mps 752 mmHg 36%
14:00 +27°C° 0 mm 2 mps 752 mmHg 39%
15:00 +26°C° 0 mm 2 mps 752 mmHg 42%
16:00 +26°C° 0 mm 2 mps 752 mmHg 45%
17:00 +25°C° 0 mm 2 mps 752 mmHg 53%
18:00 +23°C° 0 mm 2 mps 752 mmHg 60%
19:00 +21°C° 0 mm 2 mps 751 mmHg 67%
20:00 +20°C° 0 mm 2 mps 752 mmHg 71%
21:00 +19°C° 0 mm 2 mps 752 mmHg 75%
22:00 +18°C° 0 mm 2 mps 752 mmHg 79%
23:00 +18°C° 0 mm 2 mps 752 mmHg 79%
Show more